C/2003 H2 (LINEAR)                                                    

Epoch 2003 May 1.0 TT = JDT 2452760.5  

T 2003 May 17.97136 TT                                  Nakano

q   2.1785502            (2000.0)            P               Q

z  +0.0261684      Peri.  155.08312     -0.27279578     +0.16844120

 +/-0.0000271      Node    79.83758     -0.96174922     -0.07324579

e   0.9429909      Incl.   74.21913     +0.02491797     -0.98298658

P 236.0 years

From 178 observations 2003 Apr. 24-Aug. 2, mean residual 0".70.

Residuals in seconds of arc 

2003/                     030506 118  0.1-  1.0+    030601 333  0.4-  0.1+  

030424 704  0.2-  0.4+    030506 118  1.0-  1.5+    030601 333  0.3-  1.1-  

030424 704  1.4+  1.8-    030506 118 (0.1-  2.4+)   030601 333  0.4-  0.4+  

030424 704  0.8-  0.7+    030506 561  1.9-  0.9-    030601 333  0.3-  0.9-  

030424 704  0.0   0.2-    030506 561  1.1+  1.8+    030601 333  0.2-  0.5-  

030424 246  0.1+  0.3-    030506 561  0.1-  0.1+    030601 333  0.7+  0.6-  

030424 246  0.3+  0.4+    030506 J95  0.4-  0.5+    030601 333  0.5-  0.7-  

030424 246  0.2+  0.0     030506 J95  0.5-  0.2-    030601 333 (4.9-  4.3-) 

030424 246  0.3+  0.3+    030506 J95  0.6-  0.1-    030601 360  0.3-  0.3+  

030424 246  0.3-  0.1-    030509 360  0.0   0.0     030601 360  0.1+  0.1+  

030424 246  0.1+  0.1+    030509 360  0.0   0.1+    030603 118  0.3-  0.9+  

030425 106  1.0-  0.3+    030510 J87  0.6-  0.1-    030603 118  0.2-  0.1-  

030425 106  0.7+  0.2-    030510 J87 (3.0-  3.2-)   030603 118  0.0   0.7+  

030425 557  0.0   0.2-    030510 J87  1.9-  1.6-    030603 H72  1.1+  0.2+  

030425 557  0.0   0.7-    030511 213  1.5-  0.1-    030603 H72  0.2+  1.1-  

030425 557  0.4+  0.9-    030511 213 (6.2-  2.8-)   030603 H72  0.8+  1.1-  

030425 854  0.5-  0.4-    030512 704  0.1+  0.2-    030603 H72 (3.0-  1.6-) 

030425 854  1.6+  1.2-    030512 704  1.9+  1.8-    030604 246  0.6+  0.8+  

030425 854  1.8+  1.4-    030512 704  0.5+  0.6-    030604 246  0.5+  0.5+  

030425 854  0.6+  0.1-    030512 704  0.3+  0.5-    030604 246  0.4+  0.2+  

030425 704  1.5-  0.0     030518 859 (1.6-  3.4-)   030604 246  0.0   0.0   

030425 926 (0.7+  2.8+)   030518 859  1.9-  0.1-    030604 246  0.0   0.2-  

030425 704  1.0-  0.5-    030518 859 (2.9+  0.4+)   030604 H41 (4.6+  0.6-) 

030425 926  0.3+  0.2+    030522 620  0.8-  0.5+    030604 H41 (4.1+  0.8+) 

030425 926  1.2+  0.9-    030522 620  0.2-  0.2-    030604 213 (2.0-  2.8-) 

030425 704  0.3-  0.1+    030523 620  0.7-  0.0     030604 213 (5.9-  4.0-) 

030425 704  1.7-  1.0+    030523 620  0.3-  0.5+    030605 360  0.4-  0.1+  

030425 474  0.8+  1.0+    030523 360  0.4-  0.2-    030605 360  0.5-  0.2+  

030425 474  0.9+  0.2-    030523 360  0.1-  0.1+    030608 213 (2.4-  2.0-) 

030425 474  0.2-  0.4-    030523 118  0.7+  1.1+    030608 213  1.7+  0.1+  

030426 213  0.1-  0.5+    030523 118  0.3-  0.4+    030608 H41  0.2+  0.6-  

030426 213 (3.6+  3.4+)   030523 118  0.4-  0.7+    030608 H41  0.2+  0.2-  

030426 213  0.6+  0.3+    030523 118  0.5-  0.6-    030608 H41  1.6-  0.6-  

030426 704  0.6-  1.2-    030524 H41  0.7-  0.1-    030609 704  1.9-  1.2-  

030426 704  0.5+  1.0-    030525 246  0.3-  0.1+    030609 704  0.5+  0.6-  

030426 704  0.0   0.5+    030525 246  0.3+  0.4+    030609 H41  0.6+  1.2+  

030427 170  0.3-  1.0-    030525 246  0.1+  0.3+    030609 704  0.2+  1.2-  

030427 170  0.3-  1.1-    030525 246  0.3+  0.1+    030609 H41 (3.2+  0.3+) 

030427 J95  0.2-  0.9+    030525 246  0.0   0.2+    030620 215  0.7-  0.1-  

030427 J95  1.9+  0.4-    030525 246  0.1+  0.0     030620 215  0.4-  0.1+  

030428 785  0.2-  0.9+    030525 118  0.7+  0.2+    030620 215  0.5-  0.1+  

030428 785 (2.0-  0.9-)   030525 118  0.4-  0.4+    030621 213  0.3+  0.4+  

030428 926  1.4-  0.3+    030525 118  0.3-  0.0     030621 213  0.1-  1.5+  

030428 926  0.4+  0.5+    030525 118  0.4+  0.3+    030622 H41  0.0   0.4-  

030429 785 (4.5-  0.5+)   030525 118  0.0   0.3+    030622 H41  1.1+  1.1+  

030429 785  0.1-  0.1+    030526 J95  0.2+  0.1+    030623 H41  0.7+  0.5-  

030429 704  0.8+  1.8+    030526 J95  0.6-  0.2-    030624 H41 (2.6+  1.5-) 

030429 704  1.3+  0.4+    030526 J95  0.5+  0.1+    030624 H41  1.3+  0.4+  

030429 704  0.3-  0.4+    030526 H41  0.1+  1.4+    030625 246  0.7+  0.0   

030429 704  0.6+  0.8+    030527 H41  0.2+  0.7-    030625 246  0.5+  0.1-  

030430 360  0.3-  0.0     030527 118  0.1-  0.0     030625 246  0.2+  0.1+  

030430 360  0.3-  0.3+    030527 118  0.8-  0.1-    030625 246  0.2+  0.0   

030503 213 (3.0-  2.5-)   030527 118  0.0   0.4-    030625 246  0.1+  0.4-  

030503 850  0.5-  0.7-    030528 H41  0.6+  0.5+    030625 246  0.1-  0.3-  

030503 850  1.4+  0.6+    030528 H41  0.4+  1.4+    030627 H41  1.1-  0.3+  

030503 850  0.7+  0.4-    030529 750  0.1-  0.3-    030628 H41  0.1+  0.9+  

030503 850  1.4+  0.0     030529 750  1.0-  0.7-    030628 H41  0.6-  0.4+  

030504 159 (2.8+  1.5+)   030530 246  0.4-  0.0     030701 704  0.6-  0.5+  

030504 159 (1.5-  2.4+)   030530 246  0.2-  0.1-    030701 704 (2.0+  1.6-) 

030504 159 (2.6-  0.9-)   030530 246  0.3-  0.0     030701 704  0.3+  0.2+  

030504 204  0.4-  0.5+    030530 246  0.2-  0.1-    030701 704  1.0+  0.2-  

030504 204  1.4+  0.5+    030530 246  0.0   0.1-    030701 704  0.3-  0.2-  

030504 204  0.7-  0.1-    030530 246  0.2+  0.3-    030702 H41  0.1+  0.1-  

030504 204  0.9+  0.5-    030531 H41  1.4+  0.0     030702 H41 (1.1+  3.6+) 

030504 204 (2.2+  0.8+)   030531 H41  0.9-  0.5+    030707 360  0.3+  0.4-  

030505 785  1.9+  0.3-    030531 H72 (0.4-  2.0-)   030707 360  0.7-  0.1-  

030505 785  0.6-  0.1+    030531 H72 (2.1-  1.3+)   030707 360  0.7-  0.0   

030505 360  0.6-  0.3-    030531 H72 (0.8+  5.7-)   030802 E14  0.7-  1.5-  

030505 360  0.4-  0.6-    030531 H72 (1.2-  2.4-)   030802 E14 (2.4+  2.5-) 

030506 118  1.3-  1.0+    030531 H72 (1.8-  3.1-)   030802 E14  1.6+  0.7-  





NAKANO

         **** Don't distribute anyone except personal use only ****

                (C) Copyright 2003 OAA/ComputingSection

write mail from CFAD0::NAKANO on 2003-08-14 04:29:34(JST).

 



    C/2003 H2 (LINEAR)                                                    

T 2003 May  17.93871 TT                                 Nakano

q   2.1783701            (2000.0)            P               Q

z  +0.0264087      Peri.  155.06963     -0.27285653     +0.16851496

 +/-0.0001815      Node    79.83985     -0.96172635     -0.07349948

e   0.9424720      Incl.   74.21114     +0.02513440     -0.98295500

P 233.0 years

From 147 observations 2003 Apr. 24-June 9.



NAKANO

         **** Don't distribute anyone except personal use only ****

                (C) Copyright 2003 OAA/ComputingSection

write mail from CFAD0::NAKANO on 2003-06-18 05:56:37(JST).

 



◎C/2003 H2の軌道と予報位置です



 公転周期は,230年前後のようです. その後の久万の中村彰正氏による

 CCD全光度は,5月23日に17.5等,6月1日に17.0等,5日に17.2等でし

た.



    C/2003 H2 (LINEAR)                                                    

T 2003 May  17.93648 TT                                 Nakano

q   2.1783716            (2000.0)            P               Q

z  +0.0264129      Peri.  155.06865     -0.27285933     +0.16851203

 +/-0.0002375      Node    79.83990     -0.96172513     -0.07351607

e   0.9424629      Incl.   74.21105     +0.02515089     -0.98295426

P 233.0 years

From 139 observations 2003 Apr. 24-2003 June 5.

 

Date/        TT  R.A.(2000) Decl.     Delta   r     Daily motion  Mag.  Moon Age

              h    h  m       。  ,                      ,  / PA 。  m1      。

2003 June  5 14  17 09.89  +06 43.8   1.248  2.189    54.2 / 225  17.4  112  .26

           6 14  17 07.33  +06 05.4   1.245  2.190    54.6 / 225  17.4  101  .36

           7 14  17 04.75  +05 26.5   1.243  2.191    55.0 / 224  17.4   89  .47

           8 14  17 02.18  +04 47.2   1.242  2.192    55.4 / 224  17.4   76  .58

           9 14  16 59.61  +04 07.3   1.241  2.193    55.7 / 224  17.4   63  .69

          10 14  16 57.04  +03 27.1   1.240  2.195    55.9 / 223  17.4   51  .79

          11 14  16 54.47  +02 46.5   1.240  2.196    56.1 / 223  17.4   39  .88

          12 14  16 51.91  +02 05.5   1.240  2.198    56.2 / 223  17.4   29  .95

          13 14  16 49.37  +01 24.3   1.241  2.199    56.2 / 223  17.4   25  .99

          14 14  16 46.84  +00 42.9   1.243  2.201    56.2 / 222  17.4   29 1.00

          15 14  16 44.32  +00 01.3   1.245  2.202    56.1 / 222  17.4   39  .98

          16 14  16 41.82  -00 40.4   1.248  2.204    55.9 / 222  17.4   51  .94

          17 14  16 39.35  -01 22.2   1.251  2.206    55.7 / 221  17.4   63  .87

          18 14  16 36.89  -02 04.1   1.254  2.208    55.4 / 221  17.4   76  .79

          19 14  16 34.47  -02 45.9   1.259  2.209    55.1 / 221  17.4   89  .70

          20 14  16 32.07  -03 27.6   1.263  2.211    54.7 / 220  17.5  101  .60

          21 14  16 29.70  -04 09.3   1.268  2.213    54.2 / 220  17.5  113  .50

          22 14  16 27.36  -04 50.8   1.274  2.215    53.8 / 220  17.5  125  .41

          23 14  16 25.06  -05 32.1   1.280  2.217    53.2 / 219  17.5  137  .32

          24 14  16 22.79  -06 13.1   1.287  2.219    52.6 / 219  17.5  148  .23

          25 14  16 20.56  -06 53.9   1.294  2.222    52.0 / 219  17.5  158  .16

          26 14  16 18.37  -07 34.5   1.302  2.224    51.3 / 218  17.5  165  .09

          27 14  16 16.23  -08 14.6   1.310  2.226    50.6 / 218  17.6  164  .05

          28 14  16 14.12  -08 54.4   1.319  2.229    49.9 / 218  17.6  156  .01

          29 14  16 12.06  -09 33.9   1.328  2.231    49.1 / 217  17.6  145  .00

          30 14  16 10.04  -10 12.9   1.337  2.233    48.3 / 217  17.6  133  .01

     July  1 14  16 08.07  -10 51.4   1.347  2.236    47.5 / 217  17.6  120  .03

           2 14  16 06.14  -11 29.5   1.358  2.238    46.6 / 216  17.7  107  .08

